SL-14 DEB, 47090

Orbit data source: Space-Track

SL-14 DEB, 47090 is space debris in LEO originally from a launch on Thu, 15 Aug 1991 UTC launched from the Plesetsk Missile And Space Complex (PKMTR). Debris objects in space refer to the collection of defunct objects orbiting the Earth. Examples of debris include non-operational satellites, rocket bodies, and fragments generated from explosions, collisions, or faulty payload assembly.

Loading next visibility...
Identifier
47090, 1991-056DQ
Orbit
LEO
Country
Flag of CISCIS
Related business
Manufacturer
Unknown
Mission
Spacecraft
Bus & Motor
Unknown
Mass
Unknown
Launch date (UTC)
1991-08-15 (34 years ago)
Launch vehicle
Unknown
Launch site
Plesetsk Missile And Space Complex (PKMTR)
Object type
Payload
Rocket body
Debris
Shape & HBR
Unknown shape, 0.1 m
Radar Cross Section
Small (<0.1 m²)

Expand to show TLE details & history
Last TLE update: 2 weeks ago

TLE from 2 weeks ago
0 SL-14 DEB
1 47090U 91056DQ  25275.80916961  .00007626  00000-0  13340-1 0  9995
2 47090  82.6230 302.5899 0101437 134.0006 226.9549 13.41110214238726
Epoch: 2025-10-02T19:25Z
TLE epoch observation values (Epoch: 2025-10-02T19:25:12.254Z)
Latitude
0.00004°
Longitude
-0.47566°
Altitude
1,160.221 km
Speed
7.248 km/s
True Right ascension
20h 10m 21s
True Declination
0° 00' 00"
Sunlit
Object was in daylight at epoch
Visualization orbit readout
Latitude
Unknown
Longitude
Unknown
Altitude
Unknown
Speed
Unknown
Apparent Right ascension
Unknown
Apparent Declination
Unknown
Sunlit
N/A
Visualization observer readout
Local Sidereal Time
23:25:08
Azimuth
Unknown
Elevation
Unknown
Doppler factor
Unknown
Orbital elements
Apogee altitude
1,178.234 km
Perigee altitude
1,026.474 km
Semi-major axis
7,480.491 km
Eccentricity
0.01014
Inclination
82.623°
RAAN
302.5899°
Arg. of periapsis
134.0006°
True anomaly
226.11273°
Mean anomaly
226.9549°
Eccentric anomaly
226.53309°
Mean motion
3.35466 °/min
Orbital period
107.31 mins
BSTAR
0.01334
Loading maneuver chart data...
Computing Atmospheric mass density...
Loading historical data...
Loading historical data...
Loading historical data...
Loading historical data...
Loading historical data...
Loading historical data...
Loading historical data...

Documentation

Showing up to 5 results
|